Regional Weather Roundup
Issued by NWS

Home | Current Version | Previous Version | Graphics & Text | Print | Product List | Glossary On
Versions: 1 2 3 4 5 6 7 8 9 10 11 12 13 14 15 16 17 18 19 20 21 22 23 24 25 26 27 28 29 30 31 32 33 34 35 36 37 38 39 40 41 42 43 44 45 46 47 48 49 50
000
ASUS43 KLOT 181404
RWRIL

ILLINOIS REGIONAL WEATHER ROUNDUP
NATIONAL WEATHER SERVICE CHICAGO/ROMEOVILLE IL
900 AM CDT WED OCT 18 2017

NOTE: "FAIR" INDICATES FEW OR NO CLOUDS BELOW 12,000 FEET WITH NO
SIGNIFICANT WEATHER AND/OR OBSTRUCTIONS TO VISIBILITY.

* THESE STATIONS ARE NOT UNDER NWS QUALITY CONTROL. THEY ALSO MAY NOT
  REPORT WEATHER SUCH AS PRECIPITATION OR FOG.

ILZ001-002-007-009-015-016-024-181500-
NORTHWEST ILLINOIS

CITY           SKY/WX    TMP DP  RH WIND       PRES   REMARKS
MOLINE         SUNNY     54  41  61 S10       30.09R
STERLING*      SUNNY     53  43  68 VRB3        N/A
SAVANNA*       SUNNY     51  42  72 S10       30.10R
$$

ILZ003-004-008-010-011-017-018-181500-
NORTH CENTRAL ILLINOIS

CITY           SKY/WX    TMP DP  RH WIND       PRES   REMARKS
ROCKFORD       SUNNY     52  42  69 SW10      30.14R
FREEPORT*      SUNNY     51  42  69 S13       30.12R
ROCHELLE*      SUNNY     53  43  69 S10       30.14S
$$

ILZ005-006-012>014-019>023-181500-
NORTHEAST ILLINOIS

CITY           SKY/WX    TMP DP  RH WIND       PRES   REMARKS
CHICAGO-OHARE  SUNNY     55  42  61 SW10      30.16R
CHICAGO-MIDWAY SUNNY     56  42  59 S10       30.17S
AURORA         SUNNY     50  44  80 S8        30.16S
LANSING*       SUNNY     52  44  76 S9        30.20S
JOLIET*        SUNNY     53  44  73 S7        30.18S
WAUKEGAN       SUNNY     54  43  66 SW13      30.13S
DUPAGE AIRPORT SUNNY     51  45  79 S9        30.15S
KANKAKEE*      SUNNY     52  43  71 S9        30.22R
WHEELING       SUNNY     55  44  66 S12       30.17R
NORTHERLY ISL    N/A     55  40  56 S7          N/A
$$

LMZ740>746-181500-
SOUTHERN LAKE MICHIGAN

STATION/POSITION SKY/WX   TEMP    WIND        PRES    VSBY  WAVE
                          AIR SEA DIR/SP/G                  HT/PER
                          (F)     (DEG/KT/KT) (MB)    (MI)  (FT/S)
SOUTHERN BUOY              59 61  230/ 19/ 21 1020.5          4/ 6
WILMETTE HARBOR            54 57  220/ 16/ 19   N/A           2/ 4
HARRISON CRIB              55     210/ 18/ 19   N/A
BURNHAM HARBOR             55     180/  7/ 11   N/A
CALUMET HARBOR             53     180/  6/ 10 1021.2S
BURNS HARBOR               53     180/ 10/ 15 1023.0R
MICHIGAN CITY              51     160/ 17/ 21   N/A
MICHIGAN CITY 6N           53 57  190/ 14/ 17   N/A           2/ 2
ST. JOSEPH                 55 58  210/ 16/ 19 1023.0R         3/ 4
$$

ILZ025>027-034>036-040-047-049-050-058-095>099-181500-
WEST-CENTRAL ILLINOIS

CITY           SKY/WX    TMP DP  RH WIND       PRES   REMARKS
QUINCY         SUNNY     55  42  61 S9        30.15R
MACOMB*        SUNNY     52  43  72 S8        30.17R
JACKSONVILLE*  SUNNY     53  42  67 S8        30.18R
$$

ILZ028>032-037-038-041>044-048-051>054-059>061-181500-
CENTRAL ILLINOIS

CITY           SKY/WX    TMP DP  RH WIND       PRES   REMARKS
BLOOMINGTON    SUNNY     51  43  74 S10       30.20S
DECATUR        SUNNY     53  43  68 S12       30.22S
PEORIA         SUNNY     51  44  77 S10       30.17R
LACON*         MOSUNNY   54  42  63 SW9G16    30.15S
LINCOLN*       SUNNY     53  44  73 S7        30.19S
SPRINGFIELD    SUNNY     56  43  61 S10       30.20R
TAYLORVILLE    SUNNY     54  43  66 S8        30.22S
$$

ILZ033-039-045-046-055>057-062-063-181500-
EAST-CENTRAL ILLINOIS

CITY           SKY/WX    TMP DP  RH WIND       PRES   REMARKS
CHAMPAIGN      SUNNY     54  43  66 S12       30.23S
DANVILLE*      SUNNY     52  44  73 S6        30.22S
MATTOON        SUNNY     52  45  77 S8        30.24R
PARIS*         SUNNY     51  47  86 SE7       30.27S
$$

ILZ079-100>102-181500-
SOUTHWEST ILLINOIS

CITY           SKY/WX    TMP DP  RH WIND       PRES   REMARKS
ALTON          SUNNY     48  46  93 S7        30.22R
CAHOKIA*       SUNNY     53  44  71 S3        30.22R
SPARTA*        SUNNY     48  44  86 SE5       30.26R
$$

ILZ064>066-069>071-074>076-080>082-084>086-088>090-092>094-181500-
SOUTH-CENTRAL ILLINOIS

CITY           SKY/WX    TMP DP  RH WIND       PRES   REMARKS
CARBONDALE     SUNNY     49  47  93 CALM      30.26R
MARION         MOSUNNY   52  50  93 SE7       30.27R
MT. VERNON     SUNNY     51  48  89 SW3       30.27R
CENTRALIA*     SUNNY     55  47  76 S7        30.24S
SALEM*         SUNNY     55  46  71 S6        30.25S
METROPOLIS*    SUNNY     54  48  80 S5        30.29R
$$

ILZ067-068-072-073-078-083-087-091-181500-
SOUTHEAST ILLINOIS

CITY           SKY/WX    TMP DP  RH WIND       PRES   REMARKS
LAWRENCEVILLE  SUNNY     52  47  83 S6        30.28S
FLORA*         SUNNY     51  47  86 S3        30.27S
FAIRFIELD*     SUNNY     51  46  83 CALM      30.26S
HARRISBURG*    SUNNY     50  47  91 CALM      30.29R
ROBINSON*      SUNNY     51  47  86 S3        30.29R
CARMI*         SUNNY     50  47  90 S6        30.28R
$$

ABBREVIATIONS USED IN REMARKS
   TC - TEMPERATURE IN CELSIUS
  WCI - WIND CHILL INDEX
   HX - HEAT INDEX
  VSB - VISIBILITY
$$




USA.gov is the U.S. government's official web portal to all federal, state and local government web resources and services.